Find Starlink 30779

NORAD ID: 58160 Int'l Des: 2023-166 Owner: SPXS Country: US Constellation: starlink operational
LEOCIRCULAR

リアルタイム位置

3D地球を読み込み中...

Starlink 30779について

説明を読み込み中...

次回通過

Passes for default location (London). Set your location on the main map for personalized predictions.

高度履歴

Loading altitude history...

軌道要素

1 58160U 23166L 26124.83335647 .00006322 00000-0 21532-3 0 9991
2 58160 53.1588 318.9576 0000800 81.0966 269.6320 15.31696745 5908
Epoch: May 4, 2026 • Age: 11 hours

現在のステータス

高度 473.6 km
速度 7.63 km/s
衛星直下点 39.00°N, 22.29°E
打ち上げ日 Oct 29, 2023
運用期間 2.5 years
タイプ internet

技術仕様

分類 Payload
質量 730.00 kg
乾燥質量 700.00 kg
総質量 730.00 kg
長さ 0.30 m
直径 4.10 m
スパン 29.00 m
形状 Box + pan
製造者 SPXS
バスタイプ Starlink V2M
フェーズステータス In Orbit
所有者/国 SPXS/US

Most Searched